Date,TemperatureHighF,TemperatureAvgF,TemperatureLowF,DewpointHighF,DewpointAvgF,DewpointLowF,HumidityHigh,HumidityAvg,HumidityLow,PressureMaxIn,PressureMinIn,WindSpeedMaxMPH,WindSpeedAvgMPH,GustSpeedMaxMPH,PrecipitationSumIn
2013-1-1,51.0,47.4,43.0,50.0,41.9,28.0,98,82,52,30.03,29.87,2,0,6,0.19
2013-1-2,50.0,45.7,41.0,49.0,42.6,37.0,98,90,74,30.11,29.84,4,0,11,0.42
2013-1-3,45.0,40.6,32.0,38.0,35.8,30.0,93,83,62,30.17,30.04,1,0,5,0.01
2013-1-4,52.0,38.4,28.0,30.0,25.6,21.0,95,64,31,30.23,30.11,5,0,16,0.01
2013-1-5,51.0,38.8,28.0,31.0,24.8,21.0,80,59,33,30.31,30.19,2,0,7,0.01
2013-1-6,49.0,42.0,35.0,41.0,36.0,30.0,94,79,67,30.19,29.98,2,0,6,0.00
2013-1-7,52.0,39.0,30.0,34.0,31.1,29.0,96,76,43,30.35,30.09,5,0,13,0.01
2013-1-8,57.0,43.4,31.0,42.0,35.4,28.0,93,75,49,30.37,30.28,1,0,6,0.01
2013-1-9,67.0,50.9,37.0,52.0,44.2,35.0,96,80,51,30.36,30.28,4,0,7,0.00
2013-1-10,64.0,53.7,46.0,49.0,45.2,36.0,97,75,52,30.45,30.33,4,0,12,0.00
2013-1-11,53.0,48.8,42.0,52.0,43.7,31.0,99,85,50,30.37,30.07,2,0,10,0.36
2013-1-12,72.0,57.2,50.0,62.0,55.1,50.0,99,93,69,30.09,30.03,2,0,7,0.01
2013-1-13,75.0,60.8,51.0,62.0,56.2,51.0,99,86,57,30.07,29.98,3,0,12,0.00
2013-1-14,73.0,63.6,54.0,63.0,58.9,53.0,98,85,68,30.09,30.01,3,0,7,0.00
2013-1-15,63.0,49.2,46.0,60.0,47.4,45.0,99,94,86,30.14,29.97,5,1,12,0.02
2013-1-16,50.0,47.6,45.0,50.0,47.5,44.0,99,99,98,29.97,29.90,4,0,7,0.22
2013-1-17,52.0,47.8,35.0,52.0,47.2,33.0,99,97,92,30.03,29.79,7,1,26,0.95
2013-1-18,47.0,36.9,29.0,34.0,28.8,22.0,97,76,39,30.45,30.03,4,0,14,0.63
2013-1-19,54.0,37.7,26.0,33.0,28.0,24.0,94,72,33,30.42,30.08,4,0,11,0.01
2013-1-20,65.0,47.2,36.0,36.0,33.8,31.0,86,64,31,30.08,29.90,4,0,11,0.01
2013-1-21,60.0,44.4,30.0,34.0,28.9,21.0,94,59,28,30.00,29.79,5,0,12,0.00
2013-1-22,41.0,34.6,27.0,23.0,8.9,-1.0,61,36,17,30.19,29.87,7,1,15,0.00
2013-1-23,41.0,29.6,19.0,18.0,10.1,1.0,79,46,26,30.29,29.98,4,0,15,0.00
2013-1-24,39.0,31.7,25.0,27.0,14.6,2.0,84,52,23,30.41,29.87,7,2,24,0.00
2013-1-25,27.0,24.2,20.0,25.0,14.5,3.0,92,68,38,30.43,30.02,2,0,7,0.03
2013-1-26,40.0,30.6,24.0,34.0,27.9,22.0,97,90,63,30.30,30.00,3,0,6,0.11
2013-1-27,40.0,32.4,27.0,30.0,27.2,25.0,97,83,58,30.50,30.30,2,0,9,0.08
2013-1-28,52.0,42.0,32.0,47.0,35.6,28.0,90,78,66,30.43,30.15,1,0,7,0.01
2013-1-29,74.0,58.0,45.0,57.0,50.5,43.0,98,78,51,30.16,30.00,5,0,12,0.01
2013-1-30,72.0,65.7,57.0,64.0,60.6,54.0,97,84,70,30.01,29.45,15,4,34,0.04
2013-1-31,52.0,44.7,33.0,27.0,22.9,17.0,77,44,28,29.94,29.71,9,2,22,0.00
2013-2-1,42.0,35.9,26.0,28.0,14.6,1.0,79,44,21,30.29,29.82,11,2,23,0.02
2013-2-2,44.0,33.2,20.0,37.0,14.4,7.0,84,49,25,30.31,29.97,5,1,16,0.01
2013-2-3,50.0,42.1,33.0,36.0,30.5,24.0,90,66,39,29.96,29.78,5,0,17,0.02
2013-2-4,49.0,37.1,26.0,27.0,23.9,19.0,88,62,33,30.06,29.91,3,0,9,0.00
2013-2-5,63.0,45.8,33.0,38.0,32.8,26.0,86,64,35,29.94,29.79,4,0,13,0.00
2013-2-6,64.0,46.7,32.0,38.0,29.2,20.0,94,58,19,30.19,29.89,5,0,14,0.00
2013-2-7,49.0,43.4,38.0,44.0,38.0,33.0,96,82,64,30.22,29.87,6,1,16,0.32
2013-2-8,55.0,46.0,41.0,45.0,40.2,28.0,96,81,54,29.97,29.69,7,2,20,0.87
2013-2-9,54.0,40.7,30.0,29.0,23.8,16.0,84,55,23,30.27,29.97,4,0,13,0.01
2013-2-10,53.0,40.1,27.0,40.0,24.0,19.0,85,56,26,30.40,30.14,5,0,11,0.02
2013-2-11,63.0,56.6,45.0,60.0,53.6,40.0,98,90,79,30.14,29.85,5,1,15,0.09
2013-2-12,62.0,54.0,47.0,52.0,37.2,25.0,95,58,25,30.01,29.83,4,0,12,0.02
2013-2-13,49.0,46.4,44.0,47.0,44.0,37.0,97,92,65,29.89,29.55,1,0,10,0.14
2013-2-14,51.0,42.0,32.0,37.0,32.8,29.0,96,72,47,29.98,29.75,4,0,10,0.01
2013-2-15,62.0,43.9,30.0,39.0,32.1,28.0,98,69,28,30.00,29.85,4,0,10,0.01
2013-2-16,46.0,37.4,31.0,36.0,32.4,27.0,95,83,63,29.87,29.73,5,0,13,0.31
2013-2-17,39.0,30.9,24.0,25.0,14.1,7.0,79,52,27,30.18,29.82,10,2,24,0.07
2013-2-18,51.0,34.6,19.0,25.0,17.9,14.0,90,56,24,30.32,30.18,3,0,11,0.02
2013-2-19,53.0,42.4,31.0,50.0,37.6,23.0,94,83,65,30.20,29.78,5,1,21,0.09
2013-2-20,54.0,41.7,30.0,39.0,21.7,14.0,95,49,21,30.04,29.87,3,0,13,0.01
2013-2-21,56.0,41.4,26.0,25.0,18.6,14.0,80,43,19,30.16,30.03,2,0,11,0.00
2013-2-22,44.0,36.5,33.0,36.0,32.1,22.0,96,85,41,30.26,30.06,2,0,9,0.51
2013-2-23,44.0,40.3,37.0,43.0,39.3,36.0,97,96,95,30.04,29.73,3,0,10,0.68
2013-2-24,63.0,49.6,40.0,46.0,39.2,30.0,98,72,33,29.95,29.71,7,0,12,0.03
2013-2-25,43.0,38.6,34.0,33.0,24.6,21.0,75,57,44,30.14,29.95,7,1,15,0.03
2013-2-26,59.0,46.4,37.0,59.0,42.9,26.0,99,88,63,30.04,29.47,6,1,15,1.06
2013-2-27,60.0,48.6,39.0,45.0,40.2,36.0,97,76,45,29.71,29.54,3,0,13,0.01
2013-2-28,50.0,42.3,35.0,39.0,31.3,25.0,96,68,39,29.76,29.62,4,0,15,0.01
2013-3-1,50.0,40.2,29.0,31.0,27.7,25.0,88,63,41,29.83,29.75,4,0,13,0.01
2013-3-2,50.0,39.0,28.0,31.0,25.7,20.0,91,61,39,29.83,29.72,6,1,13,0.00
2013-3-3,47.0,36.5,27.0,22.0,19.4,17.0,76,51,34,29.89,29.76,5,1,14,0.00
2013-3-4,51.0,35.8,24.0,23.0,17.2,13.0,77,50,22,30.02,29.89,6,1,16,0.00
2013-3-5,50.0,41.8,31.0,45.0,35.3,23.0,96,79,48,29.99,29.50,3,0,12,0.30
2013-3-6,48.0,43.6,39.0,47.0,32.4,25.0,98,67,45,29.93,29.42,12,3,31,0.18
2013-3-7,53.0,42.9,33.0,31.0,28.4,25.0,79,58,41,30.14,29.93,5,1,17,0.01
2013-3-8,56.0,44.1,31.0,28.0,24.4,21.0,78,49,27,30.19,30.05,7,1,18,0.00
2013-3-9,63.0,47.0,33.0,32.0,27.5,24.0,74,50,23,30.24,30.15,5,0,10,0.00
2013-3-10,67.0,49.3,33.0,33.0,27.1,18.0,89,50,17,30.24,30.14,5,0,12,0.00
2013-3-11,69.0,53.7,37.0,53.0,42.9,29.0,87,68,48,30.17,29.87,10,2,17,0.00
2013-3-12,74.0,62.4,53.0,61.0,53.6,32.0,96,76,44,29.87,29.67,7,1,18,0.34
2013-3-13,59.0,48.5,36.0,33.0,26.4,19.0,83,45,26,30.03,29.86,7,1,17,0.00
2013-3-14,53.0,41.1,30.0,26.0,19.0,16.0,68,43,25,30.15,30.02,6,1,16,0.00
2013-3-15,63.0,45.7,27.0,35.0,27.1,17.0,85,53,28,30.09,29.83,4,0,14,0.00
2013-3-16,79.0,62.7,46.0,48.0,41.8,34.0,67,49,29,29.83,29.60,4,0,19,0.00
2013-3-17,63.0,52.8,44.0,53.0,44.0,37.0,92,73,46,30.08,29.76,7,1,17,0.00
2013-3-18,46.0,41.8,39.0,43.0,39.7,37.0,95,92,81,30.09,29.84,4,0,14,0.18
2013-3-19,68.0,52.2,42.0,47.0,35.4,17.0,98,64,19,29.92,29.73,4,1,18,0.23
2013-3-20,57.0,47.5,36.0,28.0,15.3,8.0,70,29,18,30.04,29.71,4,0,11,0.01
2013-3-21,47.0,40.6,33.0,30.0,19.3,10.0,73,45,25,29.88,29.64,7,2,19,0.00
2013-3-22,53.0,38.3,24.0,26.0,15.0,10.0,70,41,21,29.99,29.88,4,0,13,0.00
2013-3-23,54.0,44.9,38.0,31.0,25.4,18.0,75,48,29,29.96,29.83,1,0,6,0.00
2013-3-24,43.0,39.2,35.0,39.0,35.2,30.0,94,86,61,29.85,29.47,6,1,18,0.51
2013-3-25,49.0,41.2,36.0,37.0,30.8,22.0,95,70,37,29.73,29.47,9,1,26,0.03
2013-3-26,49.0,42.2,33.0,29.0,26.1,24.0,73,53,42,30.02,29.73,5,1,15,0.00
2013-3-27,53.0,42.5,33.0,28.0,23.6,18.0,75,50,28,30.14,30.02,9,1,19,0.00
2013-3-28,58.0,44.1,30.0,28.0,23.7,21.0,76,48,25,30.20,30.06,8,1,18,0.00
2013-3-29,61.0,45.3,30.0,32.0,26.1,21.0,85,52,23,30.24,30.10,6,1,14,0.00
2013-3-30,65.0,52.1,40.0,44.0,37.6,32.0,80,60,36,30.15,30.01,4,0,9,0.00
2013-3-31,69.0,56.9,48.0,56.0,49.0,-99.9,97,79,59,30.03,29.73,4,1,15,0.30
2013-4-1,74.0,61.6,54.0,55.0,46.7,36.0,98,65,26,29.85,29.73,6,1,18,0.12
2013-4-2,62.0,51.1,39.0,39.0,29.5,24.0,72,45,26,30.08,29.86,7,1,17,0.03
2013-4-3,62.0,51.4,43.0,36.0,22.4,16.0,71,34,20,30.21,30.03,5,1,16,0.00
2013-4-4,48.0,43.3,40.0,41.0,33.6,24.0,95,71,43,30.25,29.84,7,1,18,0.87
2013-4-5,63.0,48.4,40.0,47.0,42.5,39.0,96,82,51,29.93,29.78,4,1,13,0.48
2013-4-6,65.0,53.2,40.0,43.0,32.7,23.0,95,51,25,30.20,29.93,7,1,15,0.00
2013-4-7,73.0,55.2,37.0,47.0,38.7,33.0,90,57,29,30.20,30.04,6,1,13,0.00
2013-4-8,79.0,64.3,48.0,56.0,50.8,46.0,96,65,36,30.10,29.99,5,0,16,0.00
2013-4-9,85.0,69.9,54.0,60.0,55.4,52.0,97,64,35,30.12,30.00,5,0,15,0.00
2013-4-10,87.0,72.8,59.0,62.0,58.1,55.0,94,64,35,30.04,29.89,5,0,14,0.00
2013-4-11,83.0,71.5,61.0,67.0,60.1,56.0,94,69,44,29.93,29.74,4,1,17,0.00
2013-4-12,81.0,71.4,65.0,69.0,63.0,51.0,96,77,48,29.76,29.55,7,2,18,0.29
2013-4-13,76.0,64.1,52.0,51.0,41.3,37.0,75,46,25,29.93,29.69,4,0,11,0.06
2013-4-14,79.0,64.4,46.0,53.0,44.6,37.0,96,56,23,30.02,29.93,6,0,13,0.00
2013-4-15,70.0,65.5,60.0,58.0,55.3,50.0,90,70,58,30.13,29.94,4,0,14,0.01
2013-4-16,77.0,65.9,59.0,61.0,57.7,56.0,96,77,49,30.23,30.12,4,0,8,0.01
2013-4-17,60.0,59.4,59.0,57.0,56.9,56.0,92,91,89,30.17,30.16,0,0,0,0.00
2013-4-19,66.0,65.7,65.0,65.0,64.7,64.0,96,96,96,29.76,29.73,2,1,7,0.00
2013-4-20,65.0,56.5,47.0,64.0,42.1,31.0,96,62,29,30.19,29.76,3,0,14,0.10
2013-4-21,64.0,51.8,42.0,43.0,40.4,36.0,95,68,38,30.38,30.19,6,1,17,0.00
2013-4-22,62.0,50.0,38.0,46.0,38.8,33.0,85,67,42,30.38,30.15,6,1,16,0.00
2013-4-23,68.0,55.4,48.0,52.0,47.4,45.0,90,76,48,30.17,30.04,4,0,10,0.02
2013-4-24,78.0,61.8,46.0,57.0,51.3,45.0,98,72,44,30.07,29.91,7,1,16,0.01
2013-4-25,73.0,61.7,53.0,56.0,47.2,41.0,93,62,34,30.20,29.95,3,0,13,0.00
2013-4-26,74.0,61.4,52.0,53.0,42.9,31.0,93,58,22,30.34,30.20,7,0,13,0.00
2013-4-27,74.0,62.3,52.0,51.0,45.5,38.0,81,57,30,30.30,30.19,4,0,10,0.00
2013-4-28,63.0,58.9,55.0,57.0,49.6,-99.9,96,75,60,30.21,30.02,2,0,7,0.53
2013-4-29,72.0,63.1,56.0,65.0,60.4,55.0,99,91,70,30.03,29.89,0,0,7,1.42
2013-4-30,67.0,62.2,56.0,61.0,58.9,54.0,98,89,71,30.09,29.92,7,0,10,0.01
2013-5-1,62.0,59.5,57.0,58.0,56.2,55.0,95,89,82,30.23,30.07,6,1,15,0.00
2013-5-2,66.0,59.5,55.0,57.0,55.4,53.0,94,86,74,30.23,30.17,7,1,14,0.00
2013-5-3,70.0,59.2,51.0,56.0,49.9,42.0,93,73,51,30.18,30.08,5,1,17,0.00
2013-5-4,67.0,56.7,50.0,52.0,48.3,43.0,86,74,54,30.12,29.98,6,2,16,0.00
2013-5-5,61.0,56.3,51.0,56.0,51.5,47.0,88,84,78,30.01,29.89,6,2,17,0.00
2013-5-6,72.0,61.1,56.0,65.0,58.7,54.0,97,92,73,29.92,29.75,4,1,15,0.96
2013-5-7,73.0,58.7,50.0,58.0,51.8,46.0,98,81,40,29.88,29.78,6,0,15,0.01
2013-5-8,74.0,62.3,52.0,59.0,55.2,50.0,97,80,51,29.93,29.85,4,0,11,0.05
2013-5-9,81.0,67.1,54.0,60.0,56.9,53.0,99,73,42,30.00,29.91,4,0,12,0.02
2013-5-10,87.0,70.0,56.0,62.0,56.1,-99.9,97,68,38,30.01,29.89,6,1,15,0.01
2013-5-11,85.0,74.2,67.0,65.0,61.7,58.0,83,66,45,29.91,29.73,5,1,17,0.00
2013-5-12,75.0,66.5,58.0,63.0,50.6,-99.9,95,61,37,29.95,29.73,6,0,15,0.03
2013-5-13,68.0,58.6,50.0,43.0,36.7,32.0,72,46,27,30.08,29.95,4,0,14,0.01
2013-5-14,72.0,57.8,42.0,45.0,38.6,32.0,92,54,25,30.17,30.01,5,0,15,0.00
2013-5-15,89.0,69.7,52.0,62.0,53.9,43.0,84,60,34,30.01,29.84,4,0,12,0.00
2013-5-16,87.0,67.4,61.0,62.0,38.8,-99.9,92,64,33,29.92,29.84,5,0,12,0.00
2013-5-17,88.0,74.1,64.0,64.0,54.3,-99.9,92,65,33,30.01,29.92,4,0,9,0.00
2013-5-18,82.0,71.1,63.0,70.0,63.6,55.0,95,79,42,30.09,30.01,4,0,9,0.15
2013-5-19,78.0,70.0,67.0,71.0,67.0,66.0,98,91,70,30.09,29.99,6,1,13,0.70
2013-5-20,77.0,70.8,67.0,71.0,68.1,66.0,99,92,77,30.05,29.97,8,1,11,0.77
2013-5-21,84.0,73.2,68.0,72.0,68.7,67.0,97,86,61,29.98,29.90,9,1,13,0.01
2013-5-22,85.0,74.2,67.0,69.0,66.9,64.0,96,79,53,29.98,29.86,5,1,18,0.01
2013-5-23,82.0,72.2,68.0,71.0,68.1,66.0,96,88,59,29.90,29.77,5,0,11,0.23
2013-5-24,74.0,66.0,54.0,68.0,54.3,38.0,98,70,34,30.11,29.75,6,1,23,0.03
2013-5-25,75.0,59.0,43.0,52.0,42.2,35.0,92,59,26,30.20,30.07,5,0,14,0.00
2013-5-26,75.0,61.7,52.0,53.0,45.9,37.0,89,59,35,30.20,30.11,2,0,11,0.00
2013-5-27,81.0,66.3,50.0,56.0,50.8,44.0,97,63,29,30.20,30.10,5,1,12,0.00
2013-5-28,84.0,72.5,60.0,66.0,61.7,56.0,93,70,50,30.19,30.09,6,1,14,0.00
2013-5-29,85.0,71.8,61.0,65.0,62.0,59.0,97,74,47,30.18,30.12,6,1,17,0.00
2013-6-3,81.0,72.6,66.0,72.0,68.4,64.0,97,87,73,29.88,29.78,5,1,13,0.28
2013-6-4,82.0,72.0,64.0,68.0,64.2,61.0,99,79,53,30.03,29.86,4,0,18,0.28
2013-6-5,83.0,72.9,64.0,64.0,59.9,56.0,92,66,42,30.07,29.95,3,0,10,0.00
2013-6-6,77.0,71.3,67.0,73.0,66.7,57.0,98,86,60,29.98,29.78,3,0,13,1.15
2013-6-7,77.0,71.4,69.0,75.0,70.4,69.0,99,97,89,29.80,29.39,5,0,17,2.95
2013-6-8,84.0,74.4,68.0,72.0,69.5,67.0,99,86,59,30.03,29.76,4,0,9,0.18
2013-6-9,87.0,76.2,67.0,73.0,69.6,66.0,99,82,54,30.10,30.00,5,0,10,0.15
2013-6-10,83.0,75.0,71.0,76.0,71.9,70.0,98,91,71,30.04,29.85,5,2,15,1.37
2013-6-11,86.0,76.3,70.0,70.0,67.3,64.0,94,76,50,29.90,29.84,7,1,16,0.75
2013-6-12,91.0,78.2,65.0,75.0,68.4,63.0,96,74,50,29.92,29.81,3,0,10,0.00
2013-6-13,96.0,81.2,69.0,76.0,71.1,65.0,94,75,37,29.81,29.55,8,0,31,0.09
2013-6-16,87.0,81.9,73.0,68.0,65.8,61.0,77,59,49,30.07,29.95,5,1,13,0.00
2013-6-17,87.0,77.0,70.0,72.0,67.1,62.0,87,72,51,29.98,29.87,5,0,12,0.00
2013-6-18,85.0,75.1,69.0,72.0,69.5,67.0,97,84,63,29.92,29.70,6,1,17,1.60
2013-6-19,81.0,73.0,66.0,69.0,66.4,63.0,98,81,59,30.04,29.79,4,0,11,1.60
2013-6-20,83.0,71.5,64.0,66.0,62.6,57.0,96,76,47,30.17,30.04,5,0,11,0.00
2013-6-22,79.0,75.1,70.0,72.0,69.3,68.0,93,82,74,30.12,30.05,4,0,10,0.05
2013-6-23,85.0,74.8,69.0,74.0,70.5,68.0,97,87,66,30.15,30.07,2,0,9,0.22
2013-6-24,82.0,74.5,70.0,76.0,71.7,69.0,99,92,72,30.15,30.04,4,0,11,0.37
2013-6-25,88.0,74.3,69.0,76.0,70.3,68.0,97,88,62,30.07,29.96,5,0,10,0.05
2013-6-26,89.0,75.1,69.0,75.0,70.1,65.0,98,86,60,29.98,29.85,5,0,20,0.26
2013-6-27,89.0,73.8,67.0,76.0,70.3,66.0,99,90,62,29.90,29.67,6,1,10,0.11
2013-6-28,91.0,78.1,71.0,74.0,71.6,69.0,97,83,50,29.70,29.53,3,0,19,0.60
2013-6-29,86.0,79.0,70.0,74.0,72.0,69.0,99,80,64,29.67,29.60,6,1,14,0.94
2013-6-30,86.0,76.7,72.0,74.0,72.1,68.0,97,86,67,29.81,29.66,8,1,16,0.26
2013-7-1,82.0,74.7,70.0,76.0,71.8,69.0,98,92,73,29.93,29.78,6,1,16,1.36
2013-7-2,78.0,73.3,71.0,74.0,72.2,69.0,98,96,86,30.13,29.93,6,1,13,0.54
2013-7-3,85.0,77.7,74.0,76.0,73.3,71.0,98,87,72,30.19,30.10,7,1,16,0.02
2013-7-4,89.0,80.8,73.0,75.0,72.0,68.0,97,76,50,30.22,30.13,7,2,17,0.01
2013-7-5,90.0,77.8,72.0,75.0,72.4,70.0,98,85,55,30.22,30.10,5,1,14,0.01
2013-7-6,88.0,78.2,73.0,74.0,72.2,69.0,98,83,60,30.19,30.07,6,1,11,0.00
2013-7-7,90.0,79.2,69.0,74.0,71.3,67.0,98,78,56,30.13,30.01,7,1,14,0.00
2013-7-8,83.0,75.2,72.0,78.0,70.5,-99.9,96,88,75,30.11,30.04,6,0,15,0.33
2013-7-9,86.0,75.4,72.0,77.0,73.0,71.0,99,93,73,30.10,30.01,3,0,13,0.34
2013-7-10,85.0,75.1,73.0,78.0,70.7,-99.9,98,91,72,30.05,29.89,2,0,13,0.31
2013-7-11,84.0,75.0,72.0,74.0,72.2,71.0,98,92,70,29.92,29.83,3,0,9,0.39
2013-7-12,77.0,72.7,71.0,73.0,71.5,70.0,99,96,84,29.93,29.81,1,0,10,0.23
2013-7-13,78.0,73.5,71.0,76.0,71.9,70.0,98,96,91,30.10,29.94,2,0,11,0.34
2013-7-14,87.0,76.8,70.0,77.0,72.9,69.0,99,89,61,30.23,30.10,6,0,14,0.76
2013-7-15,90.0,77.6,70.0,76.0,72.1,69.0,99,85,54,30.25,30.18,2,0,5,0.56
2013-7-16,94.0,78.9,70.0,75.0,71.7,69.0,99,81,48,30.21,30.11,1,0,11,0.11
2013-7-17,92.0,80.8,74.0,77.0,73.8,71.0,98,82,52,30.15,30.04,3,0,8,0.11
2013-7-18,93.0,81.1,76.0,78.0,74.9,73.0,96,83,53,30.09,29.98,2,0,6,0.01
2013-7-19,90.0,81.6,74.0,76.0,73.5,69.0,97,78,55,30.04,29.93,4,0,13,0.01
2013-7-20,90.0,80.7,75.0,75.0,71.1,-99.9,90,75,59,29.98,29.87,6,1,12,0.00
2013-7-21,89.0,78.1,72.0,76.0,72.3,70.0,98,83,63,29.94,29.84,5,0,12,1.34
2013-7-22,88.0,76.0,72.0,76.0,73.0,71.0,99,91,66,29.90,29.77,3,0,9,0.01
2013-7-23,89.0,79.8,74.0,76.0,72.7,71.0,94,80,56,29.80,29.67,3,0,11,0.01
2013-7-24,93.0,81.7,71.0,74.0,71.1,67.0,97,73,44,29.79,29.67,3,0,7,0.61
2013-7-25,80.0,74.0,69.0,71.0,69.7,67.0,98,88,70,29.96,29.75,2,0,9,0.74
2013-7-26,86.0,73.4,64.0,69.0,65.4,60.0,98,79,46,30.04,29.95,0,0,1,0.01
2013-7-27,87.0,75.8,68.0,73.0,69.3,66.0,98,82,54,30.00,29.88,3,0,11,0.45
2013-7-28,87.0,77.0,70.0,75.0,71.3,67.0,99,84,53,29.93,29.86,2,0,9,0.03
2013-7-29,88.0,76.9,71.0,72.0,69.9,66.0,96,80,53,30.09,29.93,0,0,1,0.02
2013-7-30,88.0,75.8,65.0,71.0,66.9,63.0,94,76,45,30.15,30.07,2,0,6,0.00
2013-7-31,83.0,76.7,72.0,74.0,71.0,69.0,96,83,69,30.09,29.95,2,0,9,0.33
2013-8-1,84.0,74.8,71.0,74.0,71.2,69.0,99,89,67,29.96,29.81,0,0,5,0.36
2013-8-2,90.0,78.4,70.0,74.0,71.3,68.0,98,81,52,29.96,29.84,1,0,9,0.01
2013-8-3,90.0,79.6,72.0,76.0,73.2,70.0,97,82,52,29.96,29.84,6,0,13,0.88
2013-8-4,84.0,75.6,68.0,74.0,68.9,64.0,99,82,54,29.96,29.82,4,0,12,0.88
2013-8-5,85.0,73.7,64.0,69.0,64.7,59.0,97,76,47,30.03,29.94,1,0,10,0.01
2013-8-6,83.0,74.1,68.0,69.0,66.5,64.0,96,78,57,30.01,29.94,3,0,11,0.13
2013-8-7,86.0,76.5,69.0,71.0,68.7,67.0,94,78,54,30.04,29.96,5,0,13,0.05
2013-8-8,90.0,78.1,70.0,74.0,70.7,68.0,97,80,53,30.01,29.93,3,0,7,0.00
2013-8-9,92.0,80.4,73.0,76.0,74.0,72.0,97,82,55,30.00,29.93,4,0,10,0.00
2013-8-10,93.0,81.0,73.0,78.0,74.3,72.0,97,82,55,30.04,29.94,4,0,24,0.27
2013-8-11,93.0,80.2,71.0,77.0,73.3,71.0,99,82,54,30.05,29.94,1,0,4,0.27
2013-8-12,93.0,80.4,74.0,75.0,73.1,69.0,97,81,46,29.98,29.88,2,0,7,0.00
2013-8-13,91.0,78.1,73.0,79.0,71.6,-99.9,98,85,60,29.89,29.71,3,0,12,0.81
2013-8-14,76.0,70.2,64.0,73.0,64.2,-99.9,98,85,75,30.01,29.76,3,0,7,0.02
2013-8-15,77.0,59.5,61.0,61.0,39.8,-99.9,90,71,54,30.09,30.01,0,0,2,0.00
2013-8-16,71.0,63.6,60.0,64.0,55.8,-99.9,95,84,65,30.10,30.02,0,0,4,0.01
2013-8-17,73.0,68.5,65.0,72.0,66.6,61.0,98,94,86,30.09,30.03,2,0,10,0.40
2013-8-18,84.0,73.4,70.0,72.0,67.0,-99.9,99,84,62,30.14,30.05,1,0,7,0.01
2013-8-19,73.0,65.2,68.0,71.0,51.4,-99.9,98,93,87,30.12,30.03,0,0,7,0.47
2013-8-20,83.0,74.1,70.0,74.0,68.9,-99.9,99,89,67,30.12,30.04,0,0,1,0.01
2013-8-21,87.0,75.3,70.0,76.0,72.1,69.0,99,91,68,30.16,30.05,2,0,13,0.05
2013-8-22,89.0,78.3,69.0,75.0,71.6,69.0,99,82,55,30.09,29.93,4,0,12,0.05
2013-8-23,88.0,77.0,69.0,75.0,70.6,68.0,98,82,55,29.98,29.86,2,0,10,0.01
2013-8-24,82.0,72.7,66.0,69.0,62.1,58.0,91,71,44,30.22,29.98,5,1,16,0.00
2013-8-25,80.0,68.1,62.0,63.0,57.5,-99.9,98,74,42,30.32,30.22,3,0,15,0.00
2013-8-26,83.0,68.1,56.0,63.0,58.5,55.0,99,76,41,30.25,30.06,1,0,5,0.00
2013-8-27,87.0,70.0,60.0,71.0,63.2,59.0,95,81,54,30.06,29.92,0,0,0,0.00
2013-8-28,84.0,80.3,75.0,75.0,74.4,73.0,94,82,70,29.91,29.83,0,0,0,0.00
2013-8-29,88.0,79.7,73.0,74.0,72.1,70.0,93,79,58,29.94,29.78,3,0,13,0.00
2013-8-30,88.0,74.5,65.0,70.0,67.0,64.0,98,80,48,29.99,29.89,4,0,9,0.00
2013-8-31,88.0,75.6,66.0,73.0,69.1,65.0,99,82,55,29.92,29.81,5,1,11,0.00
2013-9-1,92.0,77.6,71.0,76.0,69.5,-99.9,98,81,54,29.85,29.72,4,1,12,0.88
2013-9-2,88.0,77.3,71.0,76.0,72.9,70.0,99,88,62,29.84,29.74,2,0,7,0.01
2013-9-3,87.0,76.0,72.0,77.0,72.1,67.0,98,89,60,29.87,29.74,2,0,8,0.62
2013-9-4,87.0,74.8,67.0,73.0,69.9,66.0,98,86,61,30.01,29.87,3,0,6,0.52
2013-9-5,88.0,75.5,67.0,71.0,67.5,63.0,99,79,43,30.03,29.96,2,0,7,0.00
2013-9-6,83.0,71.5,66.0,65.0,61.8,57.0,93,73,48,30.10,30.01,4,0,11,0.00
2013-9-7,84.0,70.1,60.0,66.0,62.1,59.0,98,78,47,30.06,29.92,2,0,6,0.00
2013-9-8,88.0,72.1,62.0,66.0,60.4,-99.9,98,73,37,29.92,29.84,5,0,7,0.00
2013-9-9,88.0,75.5,65.0,70.0,67.6,64.0,98,79,51,30.09,29.92,2,0,7,0.00
2013-9-10,91.0,76.4,66.0,73.0,68.1,65.0,99,78,46,30.17,30.09,4,0,7,0.00
2013-9-11,88.0,76.0,66.0,71.0,68.0,62.0,99,79,42,30.15,30.02,5,0,9,0.00
2013-9-12,91.0,76.4,68.0,72.0,68.9,66.0,97,80,48,30.02,29.75,3,0,10,0.10
2013-9-13,85.0,74.2,68.0,70.0,64.4,57.0,99,75,45,29.81,29.69,4,0,11,0.01
2013-9-14,78.0,67.5,59.0,59.0,52.9,49.0,90,61,41,30.06,29.81,6,0,14,0.01
2013-9-15,81.0,64.4,56.0,63.0,55.3,-99.9,97,78,47,30.16,30.06,2,0,11,0.00
2013-9-16,86.0,73.6,66.0,72.0,64.7,61.0,98,76,44,30.11,29.97,4,0,12,0.59
2013-9-17,77.0,67.6,60.0,61.0,55.5,52.0,83,67,43,30.24,30.12,5,1,12,0.03
2013-9-18,60.0,54.5,52.0,53.0,51.3,50.0,93,89,77,30.23,30.12,0,0,5,0.00
2013-9-19,78.0,64.3,54.0,61.0,56.4,53.0,96,78,51,30.12,30.04,3,0,5,0.00
2013-9-24,74.0,65.1,59.0,61.0,59.2,58.0,96,82,57,29.91,29.89,2,0,4,0.00
2013-9-25,73.0,63.7,53.0,62.0,58.1,52.0,99,83,61,29.90,29.80,2,0,6,0.01
2013-9-26,77.0,66.2,59.0,62.0,57.6,52.0,96,76,44,29.96,29.80,4,0,14,0.01
2013-10-1,66.0,62.2,56.0,62.0,60.0,55.0,95,92,86,30.02,30.00,0,0,0,0.01
2013-10-2,85.0,69.0,57.0,64.0,60.3,56.0,99,78,41,30.06,29.98,3,0,10,0.01
2013-10-3,84.0,70.1,58.0,68.0,62.8,57.0,99,80,49,30.07,30.00,3,0,8,0.00
2013-10-4,85.0,71.7,60.0,68.0,63.9,59.0,99,79,47,30.07,29.99,3,0,7,0.00
2013-10-5,89.0,73.5,61.0,70.0,64.4,60.0,100,77,43,30.05,29.97,5,0,8,0.00
2013-10-6,84.0,72.2,63.0,71.0,67.7,62.0,99,87,60,30.01,29.87,5,1,11,0.00
2013-10-7,75.0,71.7,63.0,73.0,70.2,62.0,98,95,90,29.91,29.79,4,1,13,0.41
2013-10-8,63.0,58.6,56.0,62.0,52.5,46.0,97,81,62,30.11,29.90,7,1,17,0.23
2013-10-9,63.0,58.8,55.0,56.0,53.5,50.0,96,83,76,30.09,29.99,5,1,17,0.01
2013-10-10,61.0,57.2,54.0,60.0,55.6,52.0,97,94,91,29.99,29.86,5,1,19,0.00
2013-10-11,69.0,62.8,59.0,63.0,60.0,58.0,97,91,75,29.90,29.83,4,1,11,0.00
2013-10-12,68.0,64.6,61.0,65.0,62.0,59.0,97,91,83,30.01,29.88,1,0,10,0.00
2013-10-13,68.0,63.9,62.0,64.0,60.4,-99.9,99,92,85,30.11,30.00,3,1,10,0.07
2013-10-14,66.0,62.9,58.0,64.0,61.0,57.0,99,93,84,30.15,30.09,3,1,11,0.08
2013-10-15,71.0,62.5,54.0,62.0,57.8,53.0,99,86,68,30.12,29.98,3,0,10,0.01
2013-10-16,70.0,65.0,61.0,63.0,61.6,60.0,97,89,73,30.00,29.90,2,0,4,0.00
2013-10-17,78.0,66.5,58.0,66.0,62.2,58.0,100,87,62,29.91,29.79,3,0,9,0.00
2013-10-18,67.0,63.4,59.0,65.0,55.3,47.0,97,76,54,29.97,29.82,4,0,12,0.00
2013-10-19,68.0,64.0,61.0,65.0,61.1,56.0,96,90,84,29.91,29.76,4,0,6,0.00
2013-10-21,68.0,58.3,52.0,52.0,49.9,45.0,94,76,44,29.98,29.93,2,0,4,0.00
2013-10-22,64.0,57.5,51.0,59.0,55.1,50.0,97,92,79,29.94,29.75,1,0,3,0.00
2013-10-23,68.0,60.0,48.0,59.0,48.7,33.0,99,71,36,29.93,29.62,3,0,14,0.00
2013-10-24,60.0,47.6,36.0,41.0,36.3,32.0,92,67,37,30.10,29.93,2,0,11,0.00
2013-10-25,57.0,48.2,37.0,39.0,32.4,27.0,90,57,32,30.28,30.10,3,0,15,0.00
2013-10-26,59.0,43.9,31.0,40.0,33.5,29.0,96,71,34,30.28,30.01,5,0,10,0.00
2013-10-27,68.0,52.2,41.0,48.0,40.7,-99.9,94,70,39,30.06,29.97,3,0,8,0.00
2013-10-28,64.0,53.2,44.0,56.0,48.2,-99.9,97,88,67,30.19,30.04,2,0,4,0.00
2013-10-29,73.0,58.2,49.0,58.0,53.1,48.0,100,85,54,30.26,30.17,1,0,4,0.00
2013-11-12,62.0,42.9,35.0,40.0,34.2,20.0,96,74,40,30.31,29.98,6,1,22,0.01
2013-11-13,46.0,34.8,27.0,24.0,19.4,15.0,86,55,30,30.44,30.32,5,1,14,0.01
2013-11-14,57.0,37.4,24.0,29.0,23.8,21.0,93,65,24,30.39,30.26,3,0,9,0.01
2013-11-15,63.0,45.3,29.0,50.0,38.2,25.0,91,78,37,30.27,30.12,2,0,6,0.00
2013-11-16,72.0,57.1,50.0,58.0,51.5,-99.9,98,86,57,30.19,30.11,2,0,5,0.01
2013-11-17,72.0,62.8,54.0,66.0,58.9,53.0,99,88,65,30.14,29.85,4,0,11,0.04
2013-11-18,76.0,65.8,56.0,67.0,54.1,31.0,99,69,37,29.87,29.73,4,1,12,0.08